TVF1256 LFPO-DTMB

Flight info

Callsign TVF1256
Flight time 2h 21m
Altitude 35000
Route ERIXU DCT ETAMO DCT ADEKA DCT MOKDI DCT MEN DCT AMLIR DCT FJR DCT DIVKO DCT JUSQO DCT FIRRA DCT INKIR DCT ETOIL DCT TABOT M739 NIVAB UM739 DOPEL UG869 TBK UV334 PERAM/N0436F230 V334 RIVIN DCT BAROG
Aircraft A21N/M-SDE3FGHIRWY/LB1

Departure

Time 2026-05-05 13:12
Airport Paris-Orly Airport (LFPO)

Arrival

Time 2026-05-05 15:33
Airport Monastir Habib Bourguiba International Airport (DTMB)
Time Latitude Longitude Altitude Speed Heading
2026-05-05 12:35 48.72760 2.37176 291 ft 0 kts 344°
2026-05-05 12:52 48.72760 2.37177 291 ft 0 kts 344°
2026-05-05 13:01 48.72719 2.37193 291 ft 2 kts 345°
2026-05-05 13:01 48.72710 2.37197 291 ft 1 kts 345°
2026-05-05 13:01 48.72699 2.37209 291 ft 2 kts 287°
2026-05-05 13:01 48.72698 2.37222 291 ft 1 kts 254°
2026-05-05 13:02 48.72700 2.37232 291 ft 0 kts 253°
2026-05-05 13:04 48.72700 2.37231 291 ft 0 kts 253°
2026-05-05 13:06 48.72700 2.37230 291 ft 0 kts 253°
2026-05-05 13:06 48.72691 2.37182 291 ft 8 kts 254°
2026-05-05 13:06 48.72670 2.37062 291 ft 13 kts 258°
2026-05-05 13:06 48.72654 2.36927 291 ft 13 kts 254°
2026-05-05 13:07 48.72620 2.36780 291 ft 16 kts 248°
2026-05-05 13:07 48.72579 2.36615 291 ft 16 kts 250°
2026-05-05 13:07 48.72546 2.36450 291 ft 16 kts 253°
2026-05-05 13:07 48.72516 2.36283 291 ft 16 kts 254°
2026-05-05 13:08 48.72485 2.36119 291 ft 16 kts 255°
2026-05-05 13:08 48.72469 2.35951 291 ft 16 kts 274°
2026-05-05 13:08 48.72476 2.35784 291 ft 16 kts 266°
2026-05-05 13:08 48.72435 2.35637 291 ft 15 kts 211°
2026-05-05 13:09 48.72329 2.35632 291 ft 15 kts 190°
2026-05-05 13:09 48.72223 2.35607 291 ft 15 kts 174°
2026-05-05 13:09 48.72133 2.35640 291 ft 4 kts 162°
2026-05-05 13:09 48.72114 2.35650 291 ft 2 kts 159°
2026-05-05 13:10 48.72110 2.35652 291 ft 0 kts 158°
2026-05-05 13:10 48.72102 2.35657 291 ft 4 kts 156°
2026-05-05 13:10 48.72055 2.35707 291 ft 12 kts 133°
2026-05-05 13:10 48.71995 2.35843 291 ft 18 kts 117°
2026-05-05 13:11 48.71992 2.36131 291 ft 50 kts 75°
2026-05-05 13:11 48.72151 2.36994 291 ft 117 kts 73°
2026-05-05 13:11 48.72425 2.38478 294 ft 171 kts 76°
2026-05-05 13:11 48.72747 2.40270 750 ft 180 kts 72°
2026-05-05 13:12 48.73083 2.42098 1326 ft 189 kts 72°
2026-05-05 13:12 48.73426 2.43969 2172 ft 184 kts 71°
2026-05-05 13:12 48.73778 2.45861 2753 ft 193 kts 71°
2026-05-05 13:12 48.74124 2.47893 3147 ft 209 kts 75°
2026-05-05 13:13 48.74340 2.50173 3448 ft 233 kts 83°
2026-05-05 13:13 48.74364 2.52743 3882 ft 252 kts 89°
2026-05-05 13:13 48.74278 2.55425 4508 ft 262 kts 95°
2026-05-05 13:13 48.73646 2.58015 5281 ft 270 kts 124°
2026-05-05 13:14 48.72242 2.59837 6126 ft 274 kts 151°
2026-05-05 13:14 48.70419 2.60646 6929 ft 278 kts 165°
2026-05-05 13:14 48.68538 2.61244 7696 ft 280 kts 165°
2026-05-05 13:14 48.66640 2.61872 8466 ft 282 kts 166°
2026-05-05 13:15 48.64666 2.61912 9186 ft 289 kts 193°
2026-05-05 13:15 48.62828 2.60775 9961 ft 291 kts 202°
2026-05-05 13:15 48.60974 2.59485 10510 ft 301 kts 202°
2026-05-05 13:15 48.59002 2.58153 10838 ft 318 kts 201°
2026-05-05 13:16 48.56929 2.56786 11145 ft 335 kts 201°
2026-05-05 13:16 48.54741 2.55365 11540 ft 347 kts 201°
2026-05-05 13:16 48.52526 2.53938 12134 ft 353 kts 201°
2026-05-05 13:16 48.50264 2.52490 12883 ft 354 kts 201°
2026-05-05 13:17 48.48009 2.51055 13675 ft 353 kts 201°
2026-05-05 13:17 48.45773 2.49628 14318 ft 355 kts 201°
2026-05-05 13:17 48.43471 2.48171 14924 ft 359 kts 201°
2026-05-05 13:17 48.41164 2.46708 15531 ft 362 kts 201°
2026-05-05 13:18 48.38846 2.45241 16150 ft 365 kts 201°
2026-05-05 13:18 48.36522 2.43770 16716 ft 368 kts 202°
2026-05-05 13:18 48.34166 2.42277 17265 ft 371 kts 201°
2026-05-05 13:18 48.31779 2.40767 17824 ft 374 kts 202°
2026-05-05 13:19 48.29356 2.39237 18378 ft 378 kts 201°
2026-05-05 13:19 48.26945 2.37716 18893 ft 381 kts 201°
2026-05-05 13:19 48.24517 2.36183 19410 ft 384 kts 201°
2026-05-05 13:19 48.22015 2.34607 19921 ft 387 kts 201°
2026-05-05 13:20 48.19551 2.33058 20402 ft 391 kts 201°
2026-05-05 13:20 48.17028 2.31474 20868 ft 395 kts 201°
2026-05-05 13:20 48.14503 2.29890 21333 ft 398 kts 201°
2026-05-05 13:20 48.11943 2.28286 21788 ft 401 kts 201°
2026-05-05 13:21 48.09274 2.26950 22227 ft 403 kts 192°
2026-05-05 13:21 48.06537 2.26268 22675 ft 405 kts 183°
2026-05-05 13:21 48.03734 2.26206 23122 ft 406 kts 176°
2026-05-05 13:21 48.00877 2.26376 23516 ft 409 kts 176°
2026-05-05 13:22 47.98043 2.26578 23912 ft 412 kts 175°
2026-05-05 13:22 47.95175 2.26780 24319 ft 415 kts 175°
2026-05-05 13:22 47.92279 2.26979 24735 ft 418 kts 175°
2026-05-05 13:22 47.89377 2.27171 25151 ft 420 kts 175°
2026-05-05 13:23 47.86491 2.27359 25549 ft 422 kts 175°
2026-05-05 13:23 47.83556 2.27548 25921 ft 424 kts 175°
2026-05-05 13:23 47.80595 2.27738 26295 ft 426 kts 175°
2026-05-05 13:23 47.77640 2.27926 26646 ft 428 kts 175°
2026-05-05 13:24 47.74644 2.28117 26983 ft 430 kts 175°
2026-05-05 13:24 47.71683 2.28303 27312 ft 432 kts 175°
2026-05-05 13:24 47.68686 2.28492 27628 ft 434 kts 175°
2026-05-05 13:24 47.65669 2.28684 27940 ft 436 kts 175°
2026-05-05 13:25 47.62652 2.28873 28240 ft 437 kts 175°
2026-05-05 13:25 47.59607 2.29065 28533 ft 439 kts 175°
2026-05-05 13:25 47.56546 2.29257 28816 ft 440 kts 175°
2026-05-05 13:25 47.53509 2.29447 29146 ft 440 kts 175°
2026-05-05 13:26 47.50453 2.29637 29543 ft 439 kts 175°
2026-05-05 13:26 47.47410 2.29828 29929 ft 438 kts 175°
2026-05-05 13:26 47.44397 2.30015 30284 ft 437 kts 174°
2026-05-05 13:26 47.41359 2.30205 30638 ft 436 kts 175°
2026-05-05 13:27 47.38358 2.30392 30975 ft 434 kts 174°
2026-05-05 13:27 47.35345 2.30581 31289 ft 433 kts 175°
2026-05-05 13:27 47.32331 2.30772 31565 ft 432 kts 175°
2026-05-05 13:27 47.29382 2.30957 31835 ft 431 kts 175°
2026-05-05 13:28 47.26392 2.31144 32101 ft 430 kts 175°
2026-05-05 13:28 47.23420 2.31329 32351 ft 429 kts 175°
2026-05-05 13:28 47.20415 2.31518 32607 ft 428 kts 175°
2026-05-05 13:28 47.17469 2.31701 32812 ft 426 kts 176°
2026-05-05 13:29 47.14541 2.31882 33007 ft 425 kts 176°
2026-05-05 13:29 47.11564 2.32065 33175 ft 425 kts 176°
2026-05-05 13:29 47.08635 2.32246 33284 ft 426 kts 176°
2026-05-05 13:29 47.05684 2.32427 33407 ft 427 kts 176°
2026-05-05 13:30 47.02723 2.32610 33543 ft 427 kts 176°
2026-05-05 13:30 46.99763 2.32793 33659 ft 428 kts 176°
2026-05-05 13:30 46.96767 2.32978 33765 ft 428 kts 177°
2026-05-05 13:30 46.93801 2.33160 33876 ft 429 kts 177°
2026-05-05 13:31 46.90850 2.33494 33989 ft 429 kts 173°
2026-05-05 13:31 46.87919 2.34193 34101 ft 430 kts 168°
2026-05-05 13:31 46.85001 2.35272 34243 ft 430 kts 163°
2026-05-05 13:31 46.82171 2.36708 34353 ft 432 kts 159°
2026-05-05 13:32 46.79441 2.38492 34469 ft 433 kts 154°
2026-05-05 13:32 46.76814 2.40621 34586 ft 434 kts 149°
2026-05-05 13:32 46.74285 2.42988 34696 ft 435 kts 148°
2026-05-05 13:32 46.71750 2.45403 34818 ft 436 kts 148°
2026-05-05 13:33 46.66647 2.50270 34862 ft 442 kts 148°
2026-05-05 13:33 46.61478 2.55176 34860 ft 447 kts 148°
2026-05-05 13:34 46.56285 2.60091 34861 ft 448 kts 148°
2026-05-05 13:34 46.51092 2.64994 34875 ft 449 kts 148°
2026-05-05 13:35 46.45869 2.69911 34865 ft 449 kts 149°
2026-05-05 13:35 46.40644 2.74817 34865 ft 449 kts 149°
2026-05-05 13:36 46.35409 2.79725 34859 ft 449 kts 149°
2026-05-05 13:36 46.30172 2.84623 34866 ft 449 kts 149°
2026-05-05 13:37 46.24945 2.89497 34867 ft 449 kts 149°
2026-05-05 13:37 46.19710 2.94371 34873 ft 449 kts 149°
2026-05-05 13:38 46.14485 2.99224 34871 ft 449 kts 149°
2026-05-05 13:38 46.09230 3.04098 34878 ft 450 kts 150°
2026-05-05 13:39 46.03965 3.08964 34869 ft 450 kts 150°
2026-05-05 13:39 45.98548 3.13374 34878 ft 448 kts 158°
2026-05-05 13:40 45.92752 3.16312 34878 ft 444 kts 168°
2026-05-05 13:40 45.86703 3.17721 34887 ft 439 kts 178°
2026-05-05 13:41 45.80612 3.17820 34885 ft 438 kts 182°
2026-05-05 13:41 45.74520 3.17730 34890 ft 438 kts 182°
2026-05-05 13:42 45.68446 3.17642 34891 ft 438 kts 182°
2026-05-05 13:42 45.62381 3.17564 34896 ft 437 kts 182°
2026-05-05 13:43 45.56342 3.17483 34891 ft 436 kts 182°
2026-05-05 13:43 45.50294 3.17404 34884 ft 435 kts 182°
2026-05-05 13:44 45.44252 3.17324 34895 ft 435 kts 183°
2026-05-05 13:44 45.38205 3.17246 34900 ft 435 kts 183°
2026-05-05 13:45 45.32167 3.17170 34893 ft 434 kts 183°
2026-05-05 13:45 45.26160 3.17091 34897 ft 434 kts 183°
2026-05-05 13:46 45.20102 3.17015 34900 ft 434 kts 183°
2026-05-05 13:46 45.14086 3.16937 34898 ft 434 kts 183°
2026-05-05 13:47 45.08093 3.16862 34900 ft 433 kts 184°
2026-05-05 13:47 45.02062 3.16785 34903 ft 433 kts 184°
2026-05-05 13:48 44.96054 3.16709 34901 ft 432 kts 184°
2026-05-05 13:48 44.90077 3.16629 34907 ft 432 kts 184°
2026-05-05 13:49 44.84106 3.16551 34915 ft 430 kts 184°
2026-05-05 13:49 44.78143 3.16474 34910 ft 429 kts 184°
2026-05-05 13:50 44.72185 3.16396 34908 ft 429 kts 184°
2026-05-05 13:50 44.66206 3.16319 34920 ft 429 kts 184°
2026-05-05 13:51 44.60278 3.16245 34923 ft 428 kts 184°
2026-05-05 13:51 44.54306 3.16336 34927 ft 429 kts 182°
2026-05-05 13:52 44.48380 3.17247 34929 ft 434 kts 174°
2026-05-05 13:52 44.42570 3.19611 34921 ft 441 kts 164°
2026-05-05 13:53 44.37039 3.23443 34926 ft 449 kts 154°
2026-05-05 13:53 44.31835 3.28295 34922 ft 451 kts 152°
2026-05-05 13:54 44.29256 3.30751 34805 ft 451 kts 152°
2026-05-05 13:54 44.26651 3.33229 34860 ft 452 kts 152°
2026-05-05 13:54 44.21469 3.38139 34906 ft 453 kts 152°
2026-05-05 13:55 44.16272 3.43045 34921 ft 453 kts 153°
2026-05-05 13:55 44.11042 3.47971 34931 ft 453 kts 153°
2026-05-05 13:56 44.05865 3.52834 34926 ft 453 kts 153°
2026-05-05 13:56 44.00628 3.57746 34932 ft 452 kts 153°
2026-05-05 13:57 43.95423 3.62612 34940 ft 453 kts 153°
2026-05-05 13:57 43.90230 3.67457 34929 ft 452 kts 154°
2026-05-05 13:58 43.85040 3.72292 34915 ft 451 kts 154°
2026-05-05 13:58 43.79838 3.77127 34920 ft 452 kts 154°
2026-05-05 13:59 43.72027 3.84369 34919 ft 451 kts 154°
2026-05-05 14:00 43.64240 3.91564 34918 ft 451 kts 155°
2026-05-05 14:00 43.59187 3.96728 34920 ft 457 kts 149°
2026-05-05 14:01 43.54499 4.02686 34917 ft 465 kts 143°
2026-05-05 14:01 43.50160 4.09308 34921 ft 468 kts 140°
2026-05-05 14:02 43.45848 4.16017 34912 ft 468 kts 140°
2026-05-05 14:02 43.41547 4.22683 34908 ft 467 kts 140°
2026-05-05 14:03 43.37240 4.29329 34922 ft 468 kts 140°
2026-05-05 14:03 43.32914 4.35990 34919 ft 466 kts 140°
2026-05-05 14:04 43.28589 4.42635 34924 ft 467 kts 140°
2026-05-05 14:04 43.24307 4.49199 34928 ft 466 kts 140°
2026-05-05 14:05 43.19989 4.55804 34924 ft 466 kts 141°
2026-05-05 14:05 43.15655 4.62418 34933 ft 466 kts 141°
2026-05-05 14:06 43.11311 4.68955 34926 ft 462 kts 144°
2026-05-05 14:06 43.06563 4.74565 34927 ft 450 kts 153°
2026-05-05 14:07 43.01282 4.78971 34931 ft 438 kts 162°
2026-05-05 14:07 42.95755 4.82064 34919 ft 427 kts 171°
2026-05-05 14:08 42.90114 4.84582 34925 ft 426 kts 171°
2026-05-05 14:08 42.84497 4.87081 34924 ft 427 kts 171°
2026-05-05 14:09 42.78890 4.89576 34930 ft 427 kts 171°
2026-05-05 14:09 42.73220 4.92013 34931 ft 424 kts 174°
2026-05-05 14:10 42.67510 4.93884 34926 ft 423 kts 176°
2026-05-05 14:10 42.61822 4.95694 34921 ft 423 kts 175°
2026-05-05 14:11 42.56083 4.97518 34928 ft 422 kts 176°
2026-05-05 14:11 42.50380 4.99326 34923 ft 422 kts 176°
2026-05-05 14:12 42.44693 5.01121 34923 ft 420 kts 176°
2026-05-05 14:12 42.39019 5.02909 34928 ft 421 kts 176°
2026-05-05 14:13 42.33308 5.04704 34933 ft 420 kts 176°
2026-05-05 14:13 42.27628 5.06489 34939 ft 421 kts 176°
2026-05-05 14:14 42.21950 5.08270 34940 ft 421 kts 176°
2026-05-05 14:14 42.16276 5.10044 34937 ft 421 kts 176°
2026-05-05 14:15 42.10566 5.11827 34942 ft 421 kts 176°
2026-05-05 14:15 42.04854 5.13609 34945 ft 421 kts 176°
2026-05-05 14:16 41.99165 5.15378 34943 ft 422 kts 176°
2026-05-05 14:16 41.93450 5.17155 34941 ft 423 kts 176°
2026-05-05 14:17 41.87709 5.18933 34942 ft 423 kts 176°
2026-05-05 14:17 41.81990 5.20705 34940 ft 424 kts 176°
2026-05-05 14:18 41.76237 5.22485 34941 ft 425 kts 176°
2026-05-05 14:18 41.70511 5.24481 34942 ft 431 kts 172°
2026-05-05 14:19 41.64843 5.27402 34941 ft 441 kts 165°
2026-05-05 14:19 41.59403 5.31285 34940 ft 451 kts 158°
2026-05-05 14:20 41.54204 5.36089 34941 ft 458 kts 153°
2026-05-05 14:20 41.49101 5.41061 34939 ft 458 kts 153°
2026-05-05 14:21 41.43931 5.46088 34940 ft 459 kts 153°
2026-05-05 14:21 41.38806 5.51051 34938 ft 459 kts 153°
2026-05-05 14:22 41.33641 5.56041 34938 ft 459 kts 153°
2026-05-05 14:22 41.28485 5.61014 34937 ft 460 kts 153°
2026-05-05 14:23 41.23300 5.66002 34937 ft 460 kts 154°
2026-05-05 14:23 41.18140 5.70957 34938 ft 460 kts 153°
2026-05-05 14:24 41.12961 5.75922 34935 ft 460 kts 153°
2026-05-05 14:24 41.07766 5.80889 34938 ft 461 kts 153°
2026-05-05 14:25 41.02590 5.85832 34936 ft 461 kts 153°
2026-05-05 14:25 40.97396 5.90780 34938 ft 462 kts 153°
2026-05-05 14:26 40.92176 5.95743 34939 ft 464 kts 153°
2026-05-05 14:26 40.86952 6.00701 34942 ft 464 kts 153°
2026-05-05 14:27 40.81709 6.05671 34945 ft 464 kts 153°
2026-05-05 14:27 40.76505 6.10596 34948 ft 462 kts 153°
2026-05-05 14:28 40.71281 6.15543 34948 ft 464 kts 152°
2026-05-05 14:28 40.66201 6.20792 34951 ft 467 kts 150°
2026-05-05 14:29 40.61098 6.26120 34951 ft 466 kts 150°
2026-05-05 14:29 40.56054 6.31375 34955 ft 466 kts 149°
2026-05-05 14:30 40.50964 6.36671 34954 ft 467 kts 149°
2026-05-05 14:30 40.45881 6.41945 34954 ft 467 kts 149°
2026-05-05 14:31 40.40789 6.47222 34958 ft 468 kts 149°
2026-05-05 14:31 40.35688 6.52497 34955 ft 468 kts 149°
2026-05-05 14:32 40.30623 6.57725 34956 ft 467 kts 149°
2026-05-05 14:32 40.25511 6.62986 34951 ft 468 kts 149°
2026-05-05 14:33 40.20413 6.68228 34950 ft 466 kts 150°
2026-05-05 14:33 40.15333 6.73438 34953 ft 468 kts 150°
2026-05-05 14:34 40.10192 6.78700 34964 ft 469 kts 150°
2026-05-05 14:34 40.05069 6.83937 34969 ft 470 kts 150°
2026-05-05 14:35 39.99933 6.89175 34969 ft 470 kts 150°
2026-05-05 14:35 39.94801 6.94399 34972 ft 471 kts 150°
2026-05-05 14:36 39.89654 6.99629 34975 ft 471 kts 150°
2026-05-05 14:36 39.84467 7.04892 34980 ft 471 kts 149°
2026-05-05 14:37 39.79310 7.10113 34979 ft 471 kts 149°
2026-05-05 14:37 39.74240 7.15444 34979 ft 475 kts 145°
2026-05-05 14:38 39.69509 7.21549 34978 ft 482 kts 138°
2026-05-05 14:38 39.65058 7.28034 34981 ft 484 kts 138°
2026-05-05 14:39 39.60622 7.34499 34981 ft 484 kts 138°
2026-05-05 14:39 39.56132 7.41011 34977 ft 484 kts 137°
2026-05-05 14:40 39.51662 7.47475 34973 ft 484 kts 137°
2026-05-05 14:40 39.47170 7.53954 34975 ft 483 kts 138°
2026-05-05 14:41 39.42697 7.60391 34975 ft 484 kts 137°
2026-05-05 14:41 39.38191 7.66864 34976 ft 484 kts 138°
2026-05-05 14:42 39.33702 7.73301 34977 ft 484 kts 138°
2026-05-05 14:42 39.29182 7.79769 34977 ft 485 kts 138°
2026-05-05 14:43 39.24689 7.86182 34979 ft 485 kts 138°
2026-05-05 14:43 39.20181 7.92609 34976 ft 486 kts 138°
2026-05-05 14:44 39.15636 7.99069 34978 ft 487 kts 137°
2026-05-05 14:44 39.11134 8.05510 34979 ft 487 kts 137°
2026-05-05 14:45 39.06611 8.12009 34978 ft 487 kts 137°
2026-05-05 14:45 39.02101 8.18479 34980 ft 486 kts 137°
2026-05-05 14:46 38.97612 8.24902 34978 ft 486 kts 137°
2026-05-05 14:46 38.93106 8.31339 34973 ft 485 kts 137°
2026-05-05 14:47 38.88616 8.37740 34971 ft 485 kts 137°
2026-05-05 14:47 38.84103 8.44161 34969 ft 486 kts 137°
2026-05-05 14:48 38.79586 8.50574 34968 ft 485 kts 137°
2026-05-05 14:48 38.75059 8.56972 34971 ft 484 kts 137°
2026-05-05 14:49 38.70558 8.63319 34973 ft 484 kts 136°
2026-05-05 14:49 38.66043 8.69685 34972 ft 484 kts 137°
2026-05-05 14:50 38.61528 8.76033 34971 ft 484 kts 137°
2026-05-05 14:50 38.56803 8.82041 34969 ft 476 kts 148°
2026-05-05 14:51 38.51180 8.86197 34971 ft 463 kts 164°
2026-05-05 14:51 38.45050 8.88205 35088 ft 451 kts 179°
2026-05-05 14:52 38.38831 8.88417 34985 ft 444 kts 186°
2026-05-05 14:52 38.32677 8.88356 34968 ft 444 kts 186°
2026-05-05 14:53 38.26491 8.88348 34967 ft 444 kts 185°
2026-05-05 14:53 38.23432 8.88349 34855 ft 444 kts 185°
2026-05-05 14:53 38.20338 8.88351 34915 ft 444 kts 185°
2026-05-05 14:54 38.14170 8.88353 35005 ft 444 kts 185°
2026-05-05 14:54 38.08013 8.88360 34970 ft 444 kts 185°
2026-05-05 14:55 38.01805 8.88365 34963 ft 445 kts 185°
2026-05-05 14:55 37.95637 8.88369 34957 ft 444 kts 185°
2026-05-05 14:56 37.89485 8.88364 34954 ft 445 kts 185°
2026-05-05 14:56 37.83309 8.88361 34955 ft 445 kts 185°
2026-05-05 14:57 37.77103 8.88355 34952 ft 444 kts 185°
2026-05-05 14:57 37.70908 8.88352 34952 ft 445 kts 185°
2026-05-05 14:58 37.64735 8.88351 34945 ft 445 kts 185°
2026-05-05 14:58 37.58516 8.88351 34942 ft 446 kts 185°
2026-05-05 14:59 37.52327 8.88351 34942 ft 445 kts 185°
2026-05-05 14:59 37.46153 8.88353 34938 ft 445 kts 185°
2026-05-05 15:00 37.40992 8.88356 34935 ft 445 kts 185°
2026-05-05 15:00 37.33772 8.88357 34934 ft 446 kts 185°
2026-05-05 15:01 37.27597 8.88361 34933 ft 446 kts 184°
2026-05-05 15:01 37.21350 8.88366 34937 ft 447 kts 184°
2026-05-05 15:02 37.15177 8.88371 34941 ft 447 kts 184°
2026-05-05 15:02 37.08953 8.88377 34939 ft 446 kts 184°
2026-05-05 15:03 37.02769 8.88757 34950 ft 445 kts 178°
2026-05-05 15:03 36.96715 8.90173 34955 ft 444 kts 170°
2026-05-05 15:04 36.90837 8.92638 34953 ft 450 kts 162°
2026-05-05 15:04 36.85131 8.95997 34975 ft 453 kts 159°
2026-05-05 15:05 36.76648 9.01160 34974 ft 454 kts 159°
2026-05-05 15:06 36.70957 9.04602 34981 ft 455 kts 159°
2026-05-05 15:06 36.65271 9.08039 34982 ft 455 kts 159°
2026-05-05 15:07 36.59562 9.11479 34967 ft 456 kts 159°
2026-05-05 15:07 36.53874 9.14887 34966 ft 457 kts 159°
2026-05-05 15:07 36.50998 9.16606 34350 ft 461 kts 159°
2026-05-05 15:08 36.48111 9.18332 33658 ft 461 kts 159°
2026-05-05 15:08 36.45216 9.20063 33024 ft 459 kts 159°
2026-05-05 15:08 36.42350 9.21777 32357 ft 458 kts 158°
2026-05-05 15:08 36.39493 9.23484 31699 ft 457 kts 158°
2026-05-05 15:09 36.36634 9.25192 31034 ft 457 kts 158°
2026-05-05 15:09 36.33783 9.26895 30350 ft 456 kts 158°
2026-05-05 15:09 36.30951 9.28585 29666 ft 456 kts 158°
2026-05-05 15:09 36.28085 9.30292 28972 ft 455 kts 158°
2026-05-05 15:10 36.25253 9.31976 28366 ft 452 kts 158°
2026-05-05 15:10 36.22438 9.33649 27913 ft 446 kts 158°
2026-05-05 15:10 36.19657 9.35302 27425 ft 441 kts 158°
2026-05-05 15:10 36.16931 9.36921 26916 ft 437 kts 158°
2026-05-05 15:11 36.14193 9.38546 26419 ft 434 kts 158°
2026-05-05 15:11 36.11492 9.40148 25925 ft 430 kts 158°
2026-05-05 15:11 36.08818 9.41734 25444 ft 426 kts 157°
2026-05-05 15:11 36.06145 9.43319 24965 ft 423 kts 157°
2026-05-05 15:12 36.03506 9.44883 24496 ft 419 kts 157°
2026-05-05 15:12 36.00879 9.46438 24023 ft 416 kts 157°
2026-05-05 15:12 35.98308 9.47962 23566 ft 413 kts 157°
2026-05-05 15:12 35.95721 9.49492 23096 ft 410 kts 156°
2026-05-05 15:13 35.93155 9.51008 22645 ft 407 kts 156°
2026-05-05 15:13 35.90634 9.52497 22192 ft 404 kts 156°
2026-05-05 15:13 35.88136 9.54068 21691 ft 405 kts 150°
2026-05-05 15:13 35.86071 9.56438 21179 ft 408 kts 128°
2026-05-05 15:14 35.84813 9.59520 20701 ft 410 kts 107°
2026-05-05 15:14 35.84374 9.62987 20239 ft 408 kts 95°
2026-05-05 15:14 35.84163 9.66474 19758 ft 407 kts 95°
2026-05-05 15:14 35.83955 9.69910 19291 ft 404 kts 95°
2026-05-05 15:15 35.83719 9.73342 18817 ft 402 kts 96°
2026-05-05 15:15 35.83465 9.76757 18340 ft 400 kts 96°
2026-05-05 15:15 35.83203 9.80158 17850 ft 398 kts 96°
2026-05-05 15:15 35.82939 9.83538 17369 ft 396 kts 96°
2026-05-05 15:16 35.82676 9.86882 16902 ft 394 kts 96°
2026-05-05 15:16 35.82412 9.90212 16446 ft 391 kts 96°
2026-05-05 15:16 35.82152 9.93508 15985 ft 388 kts 96°
2026-05-05 15:16 35.81893 9.96785 15528 ft 386 kts 96°
2026-05-05 15:17 35.81632 10.00088 15036 ft 383 kts 95°
2026-05-05 15:17 35.81376 10.03300 14598 ft 381 kts 95°
2026-05-05 15:17 35.81118 10.06549 14111 ft 378 kts 95°
2026-05-05 15:17 35.80865 10.09726 13670 ft 376 kts 95°
2026-05-05 15:18 35.80608 10.12927 13212 ft 373 kts 95°
2026-05-05 15:18 35.80357 10.16071 12751 ft 371 kts 95°
2026-05-05 15:18 35.80104 10.19239 12338 ft 368 kts 95°
2026-05-05 15:18 35.79854 10.22335 11869 ft 365 kts 95°
2026-05-05 15:19 35.79603 10.25433 11500 ft 360 kts 95°
2026-05-05 15:19 35.79361 10.28401 11430 ft 344 kts 95°
2026-05-05 15:19 35.79127 10.31259 11373 ft 328 kts 95°
2026-05-05 15:19 35.78904 10.33984 11353 ft 313 kts 95°
2026-05-05 15:20 35.78688 10.36620 11311 ft 299 kts 96°
2026-05-05 15:20 35.78483 10.39107 11268 ft 286 kts 96°
2026-05-05 15:20 35.78286 10.41486 11189 ft 275 kts 96°
2026-05-05 15:20 35.78094 10.43799 11086 ft 275 kts 96°
2026-05-05 15:21 35.77755 10.46114 10846 ft 272 kts 114°
2026-05-05 15:21 35.76627 10.47907 10346 ft 267 kts 148°
2026-05-05 15:21 35.74864 10.48692 10240 ft 281 kts 175°
2026-05-05 15:21 35.72914 10.48400 10259 ft 286 kts 202°
2026-05-05 15:22 35.71308 10.47032 10119 ft 282 kts 230°
2026-05-05 15:22 35.70432 10.44933 9591 ft 280 kts 258°
2026-05-05 15:22 35.70429 10.42574 8922 ft 280 kts 276°
2026-05-05 15:22 35.70672 10.40212 8264 ft 279 kts 275°
2026-05-05 15:23 35.70879 10.37845 7631 ft 277 kts 274°
2026-05-05 15:23 35.71062 10.35527 7288 ft 271 kts 274°
2026-05-05 15:23 35.71289 10.33256 7081 ft 263 kts 283°
2026-05-05 15:23 35.72145 10.31311 6816 ft 260 kts 313°
2026-05-05 15:24 35.73625 10.30101 6479 ft 260 kts 340°
2026-05-05 15:24 35.75397 10.29832 6122 ft 260 kts
2026-05-05 15:24 35.77087 10.30568 5763 ft 257 kts 36°
2026-05-05 15:24 35.78302 10.32105 5414 ft 252 kts 62°
2026-05-05 15:25 35.78844 10.34125 5098 ft 246 kts 88°
2026-05-05 15:25 35.78755 10.36182 4802 ft 242 kts 98°
2026-05-05 15:25 35.78561 10.38244 4508 ft 240 kts 98°
2026-05-05 15:25 35.78378 10.40275 4213 ft 238 kts 97°
2026-05-05 15:26 35.78213 10.42263 4051 ft 230 kts 97°
2026-05-05 15:26 35.78062 10.44176 3874 ft 222 kts 97°
2026-05-05 15:26 35.77809 10.46029 3581 ft 217 kts 114°
2026-05-05 15:26 35.76920 10.47450 3123 ft 213 kts 147°
2026-05-05 15:27 35.75561 10.48052 3016 ft 206 kts 170°
2026-05-05 15:27 35.74197 10.48205 3005 ft 185 kts 173°
2026-05-05 15:27 35.73008 10.48389 2965 ft 160 kts 160°
2026-05-05 15:27 35.72236 10.49204 2911 ft 144 kts 116°
2026-05-05 15:28 35.71949 10.50381 2941 ft 142 kts 104°
2026-05-05 15:28 35.71753 10.51565 2949 ft 141 kts 103°
2026-05-05 15:28 35.71566 10.52759 2954 ft 141 kts 103°
2026-05-05 15:28 35.71386 10.53937 2962 ft 141 kts 103°
2026-05-05 15:29 35.71205 10.55122 2936 ft 142 kts 103°
2026-05-05 15:29 35.71120 10.56321 2732 ft 143 kts 85°
2026-05-05 15:29 35.71383 10.57498 2568 ft 143 kts 74°
2026-05-05 15:29 35.71727 10.58659 2410 ft 142 kts 74°
2026-05-05 15:30 35.72043 10.59793 2268 ft 141 kts 76°
2026-05-05 15:30 35.72340 10.60948 2091 ft 140 kts 77°
2026-05-05 15:30 35.72620 10.62097 1906 ft 139 kts 77°
2026-05-05 15:30 35.72893 10.63238 1724 ft 138 kts 78°
2026-05-05 15:31 35.73159 10.64362 1547 ft 137 kts 78°
2026-05-05 15:31 35.73425 10.65490 1369 ft 136 kts 78°
2026-05-05 15:31 35.73690 10.66606 1194 ft 135 kts 77°
2026-05-05 15:31 35.73954 10.67708 1019 ft 133 kts 77°
2026-05-05 15:32 35.74213 10.68800 858 ft 132 kts 77°
2026-05-05 15:32 35.74467 10.69875 691 ft 131 kts 77°
2026-05-05 15:32 35.74731 10.70950 542 ft 130 kts 77°
2026-05-05 15:32 35.74975 10.72017 387 ft 129 kts 77°
2026-05-05 15:33 35.75232 10.73079 214 ft 129 kts 76°
2026-05-05 15:33 35.75483 10.74127 40 ft 127 kts 76°
2026-05-05 15:33 35.75708 10.75076 14 ft 97 kts 74°
2026-05-05 15:33 35.75849 10.75669 14 ft 48 kts 72°
2026-05-05 15:34 35.75928 10.75977 13 ft 34 kts 78°
2026-05-05 15:34 35.75995 10.76214 13 ft 23 kts 46°
2026-05-05 15:34 35.76113 10.76198 13 ft 14 kts 314°
2026-05-05 15:34 35.76121 10.76091 13 ft 12 kts 253°
2026-05-05 15:35 35.76107 10.76035 13 ft 4 kts 253°
2026-05-05 15:35 35.76094 10.75991 13 ft 7 kts 241°
2026-05-05 15:35 35.76054 10.75924 13 ft 10 kts 244°
2026-05-05 15:35 35.76026 10.75816 13 ft 15 kts 255°
2026-05-05 15:36 35.75993 10.75678 15 ft 17 kts 253°
2026-05-05 15:36 35.75967 10.75562 17 ft 8 kts 276°
2026-05-05 15:36 35.76006 10.75538 18 ft 5 kts 349°
2026-05-05 15:36 35.76031 10.75530 19 ft 0 kts 344°